Miscellaneous Local Product
Issued by NWS Hastings, NE

Home | Current Version | Previous Version | Graphics & Text | Print | Product List | Glossary On
Versions: 1 2 3 4 5 6 7 8 9 10 11 12 13 14 15 16 17 18 19 20 21 22 23 24 25 26 27 28 29 30 31 32 33 34 35 36 37 38 39 40 41 42 43 44 45 46 47 48 49 50
000
AXUS43 KGID 181402
MISGRI

GID CWA HOURLY WEATHER ROUNDUP
NATIONAL WEATHER SERVICE HASTINGS NE
800 AM CST SAT FEB 18 2017

NOTE: "FAIR" INDICATES FEW OR NO CLOUDS BELOW 12,000 FEET WITH NO
SIGNIFICANT WEATHER AND/OR OBSTRUCTIONS TO VISIBILITY.

...SOUTH CENTRAL NEBRASKA...

CITY           SKY/WX    TMP DP  RH WIND       PRES   REMARKS
GRAND ISLAND   CLOUDY    29  26  89 W5        29.81R WCI  24
HASTINGS       CLOUDY    31  25  78 CALM      29.81R
KEARNEY        CLOUDY    30  21  69 NW8       29.82R WCI  23
ORD            PTCLDY    29  24  82 NW3       29.81R
YORK           PTCLDY    30  28  93 CALM      29.81R
AURORA         CLOUDY    29  26  88 CALM      29.80R
LEXINGTON      CLOUDY    27  24  87 W5        29.82R WCI  22
HOLDREGE       CLOUDY    28  23  81 NW8       29.80R WCI  20
HEBRON         CLOUDY    30  28  89 CALM      29.81R

...NEBRASKA PANHANDLE...

CITY           SKY/WX    TMP DP  RH WIND       PRES   REMARKS
CHADRON        CLOUDY    42  26  53 S9        29.70F
ALLIANCE       CLEAR     32  26  78 S6        29.76R WCI  26
SCOTTSBLUFF    CLOUDY    39  25  57 E6        29.77R WCI  35
SIDNEY         CLOUDY    34  24  67 SW10      29.78S WCI  26

...WESTERN AND NORTH CENTRAL NEBRASKA...

CITY           SKY/WX    TMP DP  RH WIND       PRES   REMARKS
VALENTINE        N/A     25  21  85 CALM      29.78S
AINSWORTH      CLOUDY    32  27  81 SW5       29.79R WCI  28
ONEILL         PTCLDY    29  26  88 W3        29.81R
BROKEN BOW     CLEAR     27  25  92 CALM      29.81R
IMPERIAL       CLOUDY    28  22  78 CALM      29.81R
NORTH PLATTE   CLOUDY    28  22  78 NW10      29.82R WCI  19
MCCOOK         PTCLDY    25  21  85 W5        29.81R WCI  19

...EASTERN NEBRASKA...

CITY           SKY/WX    TMP DP  RH WIND       PRES   REMARKS
NORFOLK        PTCLDY    33  28  81 CALM      29.80R
SO SIOUX CITY  PTCLDY    33  30  88 NW8       29.81R WCI  26
TEKAMAH        CLOUDY    32  30  92 CALM      29.81R
COLUMBUS       PTCLDY    28  25  86 CALM      29.82R
ALBION         CLOUDY    32  27  84 NW3       29.81R
OMAHA EPPLEY   CLOUDY    32  28  85 CALM      29.82R
OFFUTT AFB     CLOUDY    28  28 100 CALM      29.82R
MILLARD        CLOUDY    33  32  94 CALM      29.82R
LINCOLN        CLOUDY    31  27  85 CALM      29.83R
NEBRASKA CITY  CLOUDY    40  33  74 N7        29.81R
BEATRICE       CLOUDY    30  28  92 NW3       29.81R
FALLS CITY     CLOUDY    33  29  85 NW5       29.81R WCI  29

...NORTHERN KANSAS...

CITY           SKY/WX    TMP DP  RH WIND       PRES   REMARKS
GOODLAND       CLOUDY    27  22  81 W5        29.80S WCI  22
HILL CITY      CLOUDY    35  29  78 N8        29.79R WCI  29
NORTON         SUNNY     34  25  69 N6        29.79S WCI  29
PHILLIPSBURG   CLEAR     30  27  86 CALM      29.80R
SMITH CENTER   CLEAR     36  30  80 NE8       29.80R WCI  29
HAYS           CLOUDY    31  30  96 E3        29.77R
RUSSELL        CLOUDY    34  32  92 E7        29.75S WCI  28
CONCORDIA      CLOUDY    38  33  82 CALM      29.80R
SALINA         CLEAR     39  36  89 SE3       29.79R
TOPEKA         CLEAR     37  34  89 CALM      29.81R



USA.gov is the U.S. government's official web portal to all federal, state and local government web resources and services.